Regional Weather Roundup
Issued by NWS

Home | Current Version | Previous Version | Text Only | Print | Product List | Glossary On
Versions: 1 2 3 4 5 6 7 8 9 10 11 12 13 14 15 16 17 18 19 20 21 22 23 24 25 26 27 28 29 30 31 32 33 34 35 36 37 38 39 40 41 42 43 44 45 46 47 48 49 50
000
ASUS43 KBIS 180910
RWRND

NORTH DAKOTA REGIONAL WEATHER ROUNDUP
NATIONAL WEATHER SERVICE BISMARCK ND
300 AM CST WED JAN 18 2017

NOTE: "FAIR" INDICATES FEW OR NO CLOUDS BELOW 12,000 FEET WITH NO
SIGNIFICANT WEATHER AND/OR OBSTRUCTIONS TO VISIBILITY.


NDZ001>003-009>011-017-181000-
NORTHWEST NORTH DAKOTA

CITY           SKY/WX    TMP DP  RH WIND       PRES   REMARKS
WILLISTON      FAIR      31  23  72 SW15      29.69F
MINOT          FAIR      37  27  67 SW16      29.65R
$$

NDZ018>021-031>035-040>046-181000-
SOUTHWEST NORTH DAKOTA

CITY           SKY/WX    TMP DP  RH WIND       PRES   REMARKS
BISMARCK       FAIR      20  15  81 SE3       29.75R
DICKINSON      FAIR      32  22  66 SW20      29.72S
GARRISON         N/A     30  22  72 SW8       29.69R
HETTINGER ARPT CLOUDY    29  19  66 W5        29.79F
$$

NDZ004>008-012>016-024-026-027-054-181000-
NORTHEAST NORTH DAKOTA

CITY           SKY/WX    TMP DP  RH WIND       PRES   REMARKS
GRAND FORKS    CLOUDY    27  18  69 SW13      29.69R WCI  16
GRND FRKS AFB  CLOUDY    26  19  75 SW8       29.68R WCI  17
DEVILS LAKE    FAIR      26  22  84 SW7       29.66R WCI  18
$$

NDZ022-023-025-028>030-036>039-047>053-181000-
SOUTHEAST NORTH DAKOTA

CITY           SKY/WX    TMP DP  RH WIND       PRES   REMARKS
FARGO          CLOUDY    23  18  81 S12       29.75F WCI  12
JAMESTOWN      FAIR      28  20  71 SW12      29.71R WCI  18
$$





USA.gov is the U.S. government's official web portal to all federal, state and local government web resources and services.